When you browse on this site, cookies collect data to enhance your experience and personalize the content and advertising you see.
Visit our Privacy Policy to learn more. By continuing to use the site, you agree to this use of cookies and data.
  • In United States
  • List of Countries
  • For 7 days
  • Water Temperature
  • Satellite Maps
  • Weather Map
  • Weather Widgets
  • user-avatar
    Login

    Hourly Weather Korçe

    Today, 17 December, Monday

    Time Temperature Precipitation Wind Pressure Humidity
    00:00 0°C° 0 mm 1 mps 664 mmHg 81%
    01:00 0°C° 0 mm 1 mps 664 mmHg 79%
    02:00 0°C° 0 mm 1 mps 664 mmHg 76%
    03:00 +1°C° 0 mm 1 mps 664 mmHg 72%
    04:00 +1°C° 0 mm 1 mps 664 mmHg 69%
    05:00 +1°C° 0 mm 1 mps 664 mmHg 66%
    06:00 +2°C° 0 mm 1 mps 664 mmHg 63%
    07:00 +2°C° 0 mm 1 mps 664 mmHg 60%
    08:00 +3°C° 0 mm 1 mps 664 mmHg 57%
    09:00 +2°C° 0 mm 2 mps 664 mmHg 55%
    10:00 +3°C° 0 mm 2 mps 665 mmHg 52%
    11:00 +3°C° 0.1 mm 2 mps 664 mmHg 54%
    12:00 +4°C° 0.1 mm 2 mps 664 mmHg 57%
    13:00 +4°C° 0.1 mm 2 mps 663 mmHg 59%
    14:00 +4°C° 0.4 mm 2 mps 663 mmHg 65%
    15:00 +2°C° 0.4 mm 3 mps 662 mmHg 71%
    16:00 +2°C° 0.4 mm 3 mps 662 mmHg 76%
    17:00 +1°C° 2.6 mm 3 mps 662 mmHg 80%
    18:00 +1°C° 2.6 mm 3 mps 662 mmHg 84%
    19:00 +2°C° 2.6 mm 2 mps 661 mmHg 88%
    20:00 +2°C° 3 mm 2 mps 662 mmHg 89%
    21:00 +2°C° 3 mm 2 mps 662 mmHg 90%
    22:00 +1°C° 3 mm 2 mps 662 mmHg 92%
    23:00 +1°C° 0.8 mm 2 mps 662 mmHg 92%

    Tomorrow, 18 December, Tuesday

    Time Temperature Precipitation Wind Pressure Humidity
    00:00 +1°C° 0.8 mm 2 mps 662 mmHg 91%
    01:00 +1°C° 0.8 mm 2 mps 662 mmHg 91%
    02:00 +1°C° 0.6 mm 2 mps 662 mmHg 91%
    03:00 -1°C° 0.6 mm 2 mps 662 mmHg 91%
    04:00 -1°C° 0.6 mm 2 mps 662 mmHg 90%
    05:00 -1°C° 0.3 mm 2 mps 663 mmHg 90%
    06:00 -1°C° 0.3 mm 2 mps 663 mmHg 89%
    07:00 -2°C° 0.3 mm 3 mps 664 mmHg 89%
    08:00 -1°C° 0.1 mm 3 mps 664 mmHg 87%
    09:00 -1°C° 0.1 mm 3 mps 665 mmHg 86%
    10:00 0°C° 0.1 mm 3 mps 665 mmHg 84%
    11:00 +1°C° 0 mm 2 mps 665 mmHg 83%
    12:00 +1°C° 0 mm 2 mps 665 mmHg 83%
    13:00 +2°C° 0 mm 2 mps 665 mmHg 82%
    14:00 +1°C° 0 mm 2 mps 665 mmHg 84%
    15:00 +1°C° 0 mm 2 mps 665 mmHg 85%
    16:00 -1°C° 0 mm 2 mps 665 mmHg 86%
    17:00 -2°C° 0 mm 2 mps 666 mmHg 86%
    18:00 -2°C° 0 mm 2 mps 666 mmHg 86%
    19:00 -3°C° 0 mm 2 mps 666 mmHg 87%
    20:00 -3°C° 0 mm 2 mps 666 mmHg 86%
    21:00 -4°C° 0 mm 2 mps 666 mmHg 86%
    22:00 -4°C° 0 mm 2 mps 667 mmHg 86%
    23:00 -4°C° 0 mm 2 mps 667 mmHg 85%

    Day after tomorrow, 19 December, Wednesday

    Time Temperature Precipitation Wind Pressure Humidity
    00:00 -4°C° 0 mm 2 mps 667 mmHg 85%
    01:00 -4°C° 0 mm 2 mps 667 mmHg 84%
    02:00 -4°C° 0 mm 2 mps 667 mmHg 84%
    03:00 -4°C° 0 mm 2 mps 667 mmHg 83%
    04:00 -2°C° 0 mm 1 mps 667 mmHg 82%
    05:00 -2°C° 0 mm 1 mps 667 mmHg 82%
    06:00 -2°C° 0 mm 1 mps 667 mmHg 81%
    07:00 -2°C° 0 mm 1 mps 668 mmHg 81%
    08:00 0°C° 0 mm 1 mps 668 mmHg 80%
    09:00 +2°C° 0 mm 1 mps 669 mmHg 79%
    10:00 +3°C° 0 mm 1 mps 670 mmHg 78%
    11:00 +4°C° 0 mm 1 mps 670 mmHg 77%
    12:00 +4°C° 0 mm 1 mps 669 mmHg 76%
    13:00 +5°C° 0 mm 1 mps 669 mmHg 75%
    14:00 +4°C° 0 mm 1 mps 669 mmHg 76%
    15:00 +3°C° 0 mm 1 mps 669 mmHg 78%
    16:00 +2°C° 0 mm 1 mps 669 mmHg 79%
    17:00 +1°C° 0 mm 1 mps 669 mmHg 79%
    18:00 +1°C° 0 mm 1 mps 669 mmHg 79%
    19:00 0°C° 0 mm 1 mps 669 mmHg 79%
    20:00 0°C° 0 mm 1 mps 669 mmHg 78%
    21:00 0°C° 0 mm 1 mps 669 mmHg 77%
    22:00 -1°C° 0 mm 1 mps 669 mmHg 76%
    23:00 -1°C° 0 mm 1 mps 669 mmHg 76%

    20 December, Thursday

    Time Temperature Precipitation Wind Pressure Humidity
    00:00 -1°C° 0 mm 1 mps 669 mmHg 75%
    01:00 -1°C° 0 mm 1 mps 669 mmHg 75%
    02:00 -1°C° 0 mm 1 mps 669 mmHg 74%
    03:00 -1°C° 0 mm 1 mps 669 mmHg 74%
    04:00 -1°C° 0 mm 1 mps 669 mmHg 73%
    05:00 -1°C° 0 mm 1 mps 669 mmHg 73%
    06:00 -3°C° 0 mm 2 mps 669 mmHg 72%
    07:00 -3°C° 0 mm 2 mps 669 mmHg 72%
    08:00 -1°C° 0 mm 2 mps 670 mmHg 72%
    09:00 +1°C° 0 mm 2 mps 670 mmHg 73%
    10:00 +3°C° 0 mm 2 mps 671 mmHg 74%
    11:00 +3°C° 0 mm 2 mps 670 mmHg 75%
    12:00 +4°C° 0 mm 2 mps 670 mmHg 76%
    13:00 +5°C° 0 mm 2 mps 670 mmHg 77%
    14:00 +4°C° 0 mm 2 mps 670 mmHg 80%
    15:00 +3°C° 0 mm 2 mps 669 mmHg 83%
    16:00 +3°C° 0 mm 2 mps 669 mmHg 85%
    17:00 +2°C° 0 mm 2 mps 669 mmHg 86%
    18:00 +2°C° 0 mm 2 mps 669 mmHg 87%
    19:00 +1°C° 0 mm 3 mps 669 mmHg 88%
    20:00 +2°C° 0 mm 2 mps 669 mmHg 89%
    21:00 +2°C° 0 mm 2 mps 669 mmHg 90%
    22:00 +2°C° 0 mm 2 mps 669 mmHg 91%
    23:00 +2°C° 0 mm 2 mps 669 mmHg 91%

    21 December, Friday

    Time Temperature Precipitation Wind Pressure Humidity
    00:00 +2°C° 0 mm 2 mps 669 mmHg 92%
    01:00 +3°C° 0 mm 2 mps 669 mmHg 92%
    02:00 +3°C° 0 mm 2 mps 669 mmHg 93%
    03:00 +3°C° 0 mm 2 mps 669 mmHg 93%
    04:00 +3°C° 0 mm 2 mps 668 mmHg 93%
    05:00 +3°C° 0 mm 2 mps 669 mmHg 93%
    06:00 +3°C° 0 mm 2 mps 669 mmHg 93%
    07:00 +2°C° 0 mm 2 mps 669 mmHg 93%
    08:00 +4°C° 0 mm 1 mps 669 mmHg 92%
    09:00 +5°C° 0 mm 1 mps 670 mmHg 90%
    10:00 +6°C° 0 mm 1 mps 670 mmHg 89%
    11:00 +6°C° 0.1 mm 1 mps 670 mmHg 87%
    12:00 +6°C° 0.1 mm 2 mps 669 mmHg 85%
    13:00 +6°C° 0.1 mm 2 mps 669 mmHg 83%
    14:00 +5°C° 0.1 mm 2 mps 669 mmHg 85%
    15:00 +5°C° 0.1 mm 2 mps 669 mmHg 87%
    16:00 +4°C° 0.1 mm 2 mps 669 mmHg 90%
    17:00 +3°C° 0 mm 2 mps 669 mmHg 91%
    18:00 +3°C° 0 mm 1 mps 669 mmHg 92%
    19:00 +3°C° 0 mm 1 mps 669 mmHg 92%
    20:00 +2°C° 0 mm 1 mps 670 mmHg 92%
    21:00 +2°C° 0 mm 1 mps 670 mmHg 92%
    22:00 +2°C° 0 mm 1 mps 670 mmHg 92%
    23:00 +1°C° 0 mm 1 mps 670 mmHg 91%

    22 December, Saturday

    Time Temperature Precipitation Wind Pressure Humidity
    00:00 +1°C° 0 mm 1 mps 669 mmHg 89%
    01:00 +1°C° 0 mm 1 mps 669 mmHg 88%
    02:00 +1°C° 0 mm 1 mps 669 mmHg 87%
    03:00 +1°C° 0 mm 1 mps 669 mmHg 87%
    04:00 0°C° 0 mm 1 mps 669 mmHg 86%
    05:00 0°C° 0 mm 1 mps 669 mmHg 86%
    06:00 0°C° 0 mm 1 mps 669 mmHg 86%
    07:00 0°C° 0 mm 1 mps 670 mmHg 86%
    08:00 +2°C° 0 mm 1 mps 670 mmHg 82%
    09:00 +3°C° 0 mm 1 mps 671 mmHg 78%
    10:00 +5°C° 0 mm 1 mps 671 mmHg 74%
    11:00 +6°C° 0 mm 1 mps 671 mmHg 72%
    12:00 +5°C° 0 mm 2 mps 671 mmHg 69%
    13:00 +6°C° 0 mm 2 mps 671 mmHg 66%
    14:00 +5°C° 0 mm 2 mps 671 mmHg 71%
    15:00 +4°C° 0 mm 2 mps 671 mmHg 75%
    16:00 +4°C° 0 mm 1 mps 671 mmHg 79%
    17:00 +3°C° 0 mm 1 mps 671 mmHg 80%
    18:00 +2°C° 0 mm 1 mps 671 mmHg 82%
    19:00 +2°C° 0 mm 1 mps 671 mmHg 83%
    20:00 +2°C° 0 mm 1 mps 671 mmHg 83%
    21:00 +2°C° 0 mm 1 mps 671 mmHg 82%
    22:00 +1°C° 0 mm 1 mps 671 mmHg 82%
    23:00 +1°C° 0 mm 1 mps 671 mmHg 82%
    Show more